Tracking 23731 objects as of 27-Sep-2021
HD Live streaming from Space Station
objects crossing your sky now

WEINA 2

Track WEINA 2 now!
10-day predictions


NORAD ID: 47303
Int'l Code: 2020-103B
Perigee: 702.0 km
Apogee: 703.9 km
Inclination: 98.2 °
Period: 98.7 minutes
Semi major axis: 7073 km
RCS: Unknown
Launch date: December 27, 2020
Source: People's Republic of China (PRC)
Launch site: Jiuquan Satellite Launch Center, China (JSC)
aabbcc
Your satellite tracking list
Your tracking list is empty




NASA's NSSDC Master Catalog

Two Line Element Set (TLE):
1 47303U 20103B   21269.74146107  .00000217  00000-0  55906-4 0  9992
2 47303  98.2388 158.2481 0001316  63.0681 297.0660 14.59186533 39839
Source of the keplerian elements: AFSPC